sat.trackr.live / text

‹ back to catalog

STARLINK-32650

NORAD 62231 · 2024-231P

PAYLOAD ACTIVE UNKNOWN

§ Identity

Operator
Country
US
Launch date
2024-12-05
Launch site
AFWTR
Launch vehicle
Mass (kg)
RCS (m²)

Purposes: comms

External: N2YO · Heavens-Above · Gunter

§ Orbital elements

Epoch: 2026-09-21T20:08:24.896256Z

Period
94.01 min
Inclination
53.1583°
Eccentricity
0.0001116
Mean motion
15.31712120 rev/d
Perigee alt
469.9 km
Apogee alt
471.5 km
Semi-major
6,848.8 km
B*
4.4845e-4
RAAN
27.5515°
Arg perigee
82.6587°
Mean anomaly
277.4542°
Rev number
10,181

§ Raw data

STARLINK-326501 62231U 24231P   26264.83917704  .00013581  00000+0  44845-3 0  99902 62231  53.1583  27.5515 0001116  82.6587 277.4542 15.31712120101816

JSON: /api/v1/satellites/62231 · /tle

For live sub-satellite position, see the globe view (requires WebGL).

§ Visibility from observer

Set your observer location to see the next 7 days of passes ≥ 10°. The values pass through the URL so the page stays shareable.

No JS? Fill the form by hand. The geolocation button needs JavaScript.